| time (UTC) | temp F | wind direction | speed MPH | gust MPH | rain 1hr in | rain 24hr in | rain mn in | humidity % | barometer mb |
| 20260510211517 | 59 | 0.0 | 1.0 | 0.00 | 0.00 | 0.00 | 63 | 1006.3 | |
| 20260510210517 | 59 | 0.0 | 1.0 | 0.00 | 0.00 | 0.00 | 64 | 1006.3 | |
| 20260510205517 | 59 | 0.0 | 2.0 | 0.00 | 0.00 | 0.00 | 64 | 1006.6 | |
| 20260510204537 | 59 | 0.0 | 0.0 | 0.00 | 0.00 | 0.00 | 64 | 1006.6 | |
| 20260510203517 | 59 | 0.0 | 2.0 | 0.00 | 0.00 | 0.00 | 65 | 1006.6 | |
| 20260510202517 | 59 | 0.0 | 2.0 | 0.00 | 0.00 | 0.00 | 65 | 1006.7 | |
| 20260510201517 | 59 | 0.0 | 0.0 | 0.00 | 0.00 | 0.00 | 65 | 1006.8 | |
| 20260510200517 | 59 | 0.0 | 0.0 | 0.00 | 0.00 | 0.00 | 65 | 1006.8 | |
| 20260510195557 | 58 | 0.0 | 0.0 | 0.00 | 0.00 | 0.00 | 65 | 1006.9 | |
| 20260510194517 | 58 | 0.0 | 0.0 | 0.00 | 0.00 | 0.00 | 65 | 1006.9 | |
| 20260510193517 | 59 | 0.0 | 0.0 | 0.00 | 0.00 | 0.00 | 64 | 1006.9 | |
| 20260510192517 | 59 | 0.0 | 0.0 | 0.00 | 0.00 | 0.00 | 63 | 1006.9 | |
| 20260510191517 | 60 | 0.0 | 0.0 | 0.00 | 0.00 | 0.00 | 62 | 1006.8 | |
| 20260510190537 | 61 | 0.0 | 0.0 | 0.00 | 0.00 | 0.00 | 60 | 1006.9 | |
| 20260510185517 | 62 | 0.0 | 0.0 | 0.00 | 0.00 | 0.00 | 59 | 1006.9 | |
| 20260510184517 | 62 | 0.0 | 1.0 | 0.00 | 0.00 | 0.00 | 56 | 1006.9 | |
| 20260510183517 | 63 | 45 | 1.0 | 4.0 | 0.00 | 0.00 | 0.00 | 56 | 1006.6 |
| 20260510182517 | 63 | 0.0 | 3.0 | 0.00 | 0.00 | 0.00 | 56 | 1006.7 | |
| 20260510181517 | 64 | 0.0 | 0.0 | 0.00 | 0.00 | 0.00 | 56 | 1006.8 | |
| 20260510180517 | 65 | 0.0 | 1.0 | 0.00 | 0.00 | 0.00 | 54 | 1006.6 | |
| 20260510175517 | 65 | 0.0 | 3.0 | 0.00 | 0.00 | 0.00 | 52 | 1006.6 | |
| 20260510174517 | 66 | 0.0 | 4.0 | 0.00 | 0.00 | 0.00 | 52 | 1006.7 | |
| 20260510173517 | 66 | 0.0 | 4.0 | 0.00 | 0.00 | 0.00 | 49 | 1006.6 | |
| 20260510172517 | 67 | 90 | 1.0 | 4.0 | 0.00 | 0.00 | 0.00 | 49 | 1006.7 |
| 20260510171517 | 67 | 0.0 | 3.0 | 0.00 | 0.00 | 0.00 | 48 | 1006.6 | |
| 20260510170521 | 67 | 0.0 | 2.0 | 0.00 | 0.00 | 0.00 | 48 | 1006.7 | |
| 20260510165516 | 68 | 0.0 | 4.0 | 0.00 | 0.00 | 0.00 | 47 | 1006.8 | |
| 20260510164517 | 68 | 0.0 | 2.0 | 0.00 | 0.00 | 0.00 | 47 | 1006.9 | |
| 20260510163516 | 69 | 0.0 | 4.0 | 0.00 | 0.00 | 0.00 | 48 | 1007.1 | |
| 20260510162517 | 69 | 90 | 1.0 | 6.0 | 0.00 | 0.00 | 0.00 | 47 | 1007.1 |
| 20260510161516 | 70 | 0.0 | 3.0 | 0.00 | 0.00 | 0.00 | 46 | 1007.4 | |
| 20260510160517 | 71 | 113 | 1.0 | 4.0 | 0.00 | 0.00 | 0.00 | 44 | 1007.5 |
| 20260510155517 | 71 | 0.0 | 4.0 | 0.00 | 0.00 | 0.00 | 43 | 1007.8 | |
| 20260510154516 | 72 | 0.0 | 3.0 | 0.00 | 0.00 | 0.00 | 42 | 1007.9 | |
| 20260510153536 | 71 | 0.0 | 4.0 | 0.00 | 0.00 | 0.00 | 46 | 1007.9 | |
| 20260510152516 | 72 | 0.0 | 3.0 | 0.00 | 0.00 | 0.00 | 46 | 1008.2 | |
| 20260510151516 | 72 | 23 | 1.0 | 5.0 | 0.00 | 0.00 | 0.00 | 45 | 1008.2 |
| 20260510150517 | 73 | 23 | 1.0 | 4.0 | 0.00 | 0.00 | 0.00 | 42 | 1008.3 |
| 20260510145536 | 73 | 158 | 1.0 | 2.0 | 0.00 | 0.00 | 0.00 | 43 | 1008.6 |
| 20260510144516 | 73 | 270 | 1.0 | 6.0 | 0.00 | 0.00 | 0.00 | 48 | 1008.7 |
| 20260510143517 | 72 | 135 | 1.0 | 3.0 | 0.00 | 0.00 | 0.00 | 44 | 1008.9 |
| 20260510142516 | 72 | 0.0 | 3.0 | 0.00 | 0.00 | 0.00 | 43 | 1008.9 | |
| 20260510141516 | 73 | 113 | 1.0 | 4.0 | 0.00 | 0.00 | 0.00 | 42 | 1009.0 |
| 20260510140516 | 74 | 0 | 1.0 | 3.0 | 0.00 | 0.00 | 0.00 | 47 | 1009.3 |
| 20260510135516 | 73 | 113 | 1.0 | 6.0 | 0.00 | 0.00 | 0.00 | 45 | 1009.3 |
| 20260510134516 | 74 | 90 | 1.0 | 4.0 | 0.00 | 0.00 | 0.00 | 45 | 1009.6 |
| 20260510133516 | 73 | 158 | 1.0 | 4.0 | 0.00 | 0.00 | 0.00 | 45 | 1009.8 |
| 20260510132556 | 73 | 158 | 1.0 | 3.0 | 0.00 | 0.00 | 0.00 | 46 | 1009.7 |
| 20260510131516 | 71 | 90 | 2.0 | 4.0 | 0.00 | 0.00 | 0.00 | 43 | 1009.8 |
| 20260510130516 | 71 | 90 | 1.0 | 4.0 | 0.00 | 0.00 | 0.00 | 45 | 1010.0 |
| 20260510125516 | 72 | 158 | 2.0 | 7.0 | 0.00 | 0.00 | 0.00 | 45 | 1010.2 |
| 20260510124516 | 71 | 113 | 2.0 | 6.0 | 0.00 | 0.00 | 0.00 | 43 | 1010.2 |
| 20260510123516 | 72 | 158 | 2.0 | 6.0 | 0.00 | 0.00 | 0.00 | 45 | 1010.4 |
| 20260510122516 | 70 | 90 | 1.0 | 4.0 | 0.00 | 0.00 | 0.00 | 42 | 1010.5 |
| 20260510121516 | 71 | 135 | 2.0 | 6.0 | 0.00 | 0.00 | 0.00 | 42 | 1010.6 |
| 20260510120516 | 70 | 248 | 2.0 | 4.0 | 0.00 | 0.00 | 0.00 | 48 | 1010.6 |
| 20260510115516 | 71 | 0 | 1.0 | 5.0 | 0.00 | 0.00 | 0.00 | 46 | 1010.8 |
| 20260510114516 | 70 | 158 | 4.0 | 9.0 | 0.00 | 0.00 | 0.00 | 47 | 1010.9 |
| 20260510113516 | 68 | 135 | 2.0 | 8.0 | 0.00 | 0.00 | 0.00 | 48 | 1010.9 |
| 20260510112516 | 71 | 158 | 1.0 | 9.0 | 0.00 | 0.00 | 0.00 | 47 | 1011.3 |
| 20260510111516 | 70 | 158 | 3.0 | 6.0 | 0.00 | 0.00 | 0.00 | 48 | 1011.4 |
| 20260510110516 | 70 | 158 | 5.0 | 15.0 | 0.00 | 0.00 | 0.00 | 47 | 1011.6 |
| 20260510105516 | 69 | 158 | 1.0 | 5.0 | 0.00 | 0.00 | 0.00 | 54 | 1011.6 |
| 20260510104516 | 67 | 113 | 1.0 | 5.0 | 0.00 | 0.00 | 0.00 | 51 | 1011.6 |
| 20260510103516 | 68 | 158 | 4.0 | 9.0 | 0.00 | 0.00 | 0.00 | 54 | 1011.6 |
| 20260510102516 | 67 | 135 | 2.0 | 6.0 | 0.00 | 0.00 | 0.00 | 56 | 1011.7 |
| 20260510101516 | 68 | 90 | 4.0 | 11.0 | 0.00 | 0.00 | 0.00 | 52 | 1011.8 |
| 20260510100516 | 68 | 90 | 2.0 | 7.0 | 0.00 | 0.00 | 0.00 | 53 | 1012.0 |
| 20260510095515 | 69 | 90 | 4.0 | 8.0 | 0.00 | 0.00 | 0.00 | 53 | 1012.2 |
| 20260510094516 | 69 | 158 | 4.0 | 9.0 | 0.00 | 0.00 | 0.00 | 55 | 1012.1 |
| 20260510093515 | 68 | 158 | 5.0 | 9.0 | 0.00 | 0.00 | 0.00 | 55 | 1012.4 |
| 20260510092515 | 69 | 135 | 2.0 | 4.0 | 0.00 | 0.00 | 0.00 | 55 | 1012.5 |
| 20260510091537 | 68 | 158 | 2.0 | 5.0 | 0.00 | 0.00 | 0.00 | 60 | 1012.5 |
| 20260510090537 | 67 | 180 | 1.0 | 3.0 | 0.00 | 0.00 | 0.00 | 62 | 1012.6 |
| 20260510085517 | 67 | 158 | 2.0 | 6.0 | 0.00 | 0.00 | 0.00 | 63 | 1012.6 |
| 20260510084518 | 66 | 225 | 2.0 | 4.0 | 0.00 | 0.00 | 0.00 | 65 | 1012.7 |
| 20260510083537 | 64 | 0.0 | 3.0 | 0.00 | 0.00 | 0.00 | 67 | 1012.8 | |
| 20260510082538 | 64 | 23 | 2.0 | 5.0 | 0.00 | 0.00 | 0.00 | 65 | 1012.8 |
| 20260510081517 | 64 | 45 | 1.0 | 3.0 | 0.00 | 0.00 | 0.00 | 68 | 1013.0 |
| 20260510080518 | 63 | 0.0 | 4.0 | 0.00 | 0.00 | 0.00 | 68 | 1013.0 | |
| 20260510075537 | 62 | 0.0 | 2.0 | 0.00 | 0.00 | 0.00 | 68 | 1013.1 | |
| 20260510074517 | 62 | 0.0 | 2.0 | 0.00 | 0.00 | 0.00 | 70 | 1013.4 | |
| 20260510073517 | 60 | 68 | 1.0 | 4.0 | 0.00 | 0.00 | 0.00 | 71 | 1013.3 |
| 20260510072517 | 60 | 45 | 2.0 | 4.0 | 0.00 | 0.00 | 0.00 | 70 | 1013.3 |
| 20260510071517 | 61 | 68 | 1.0 | 3.0 | 0.00 | 0.00 | 0.00 | 69 | 1013.4 |
| 20260510070517 | 60 | 0.0 | 2.0 | 0.00 | 0.00 | 0.00 | 70 | 1013.3 | |
| 20260510065517 | 59 | 0.0 | 2.0 | 0.00 | 0.00 | 0.00 | 70 | 1013.4 | |
| 20260510064517 | 58 | 0.0 | 2.0 | 0.00 | 0.00 | 0.00 | 71 | 1013.5 | |
| 20260510063537 | 57 | 248 | 1.0 | 3.0 | 0.00 | 0.00 | 0.00 | 74 | 1013.7 |
| 20260510062517 | 56 | 0.0 | 6.0 | 0.00 | 0.00 | 0.00 | 76 | 1013.7 | |
| 20260510061517 | 54 | 90 | 1.0 | 6.0 | 0.00 | 0.00 | 0.00 | 79 | 1013.7 |
| 20260510060517 | 52 | 248 | 1.0 | 3.0 | 0.00 | 0.00 | 0.00 | 83 | 1013.7 |
| 20260510055517 | 51 | 248 | 1.0 | 3.0 | 0.00 | 0.00 | 0.00 | 84 | 1013.7 |
| 20260510054537 | 50 | 180 | 1.0 | 4.0 | 0.00 | 0.00 | 0.00 | 86 | 1013.8 |
| 20260510053517 | 49 | 248 | 1.0 | 3.0 | 0.00 | 0.00 | 0.00 | 87 | 1013.9 |
| 20260510052517 | 48 | 0.0 | 2.0 | 0.00 | 0.00 | 0.00 | 88 | 1014.1 | |
| 20260510051517 | 47 | 68 | 1.0 | 5.0 | 0.00 | 0.00 | 0.00 | 90 | 1013.9 |
| 20260510050537 | 47 | 0.0 | 2.0 | 0.00 | 0.00 | 0.00 | 90 | 1014.0 | |
| 20260510045517 | 46 | 158 | 1.0 | 2.0 | 0.00 | 0.00 | 0.00 | 90 | 1014.2 |
| 20260510044537 | 45 | 158 | 1.0 | 2.0 | 0.00 | 0.00 | 0.00 | 89 | 1014.1 |
| 20260510043517 | 45 | 0.0 | 2.0 | 0.00 | 0.00 | 0.00 | 89 | 1014.1 | |
| 20260510042517 | 45 | 0.0 | 2.0 | 0.00 | 0.00 | 0.00 | 89 | 1014.2 | |
| 20260510041517 | 44 | 0.0 | 0.0 | 0.00 | 0.00 | 0.00 | 89 | 1014.2 | |
| 20260510040517 | 44 | 0.0 | 1.0 | 0.00 | 0.00 | 0.00 | 89 | 1014.2 | |
| 20260510035517 | 44 | 0.0 | 0.0 | 0.00 | 0.00 | 0.00 | 88 | 1014.3 | |
| 20260510034517 | 45 | 0.0 | 0.0 | 0.00 | 0.00 | 0.00 | 88 | 1014.4 | |
| 20260510033537 | 45 | 0.0 | 1.0 | 0.00 | 0.00 | 0.00 | 88 | 1014.5 | |
| 20260510032540 | 45 | 0.0 | 2.0 | 0.00 | 0.00 | 0.00 | 87 | 1014.3 | |
| 20260510031517 | 45 | 0.0 | 0.0 | 0.00 | 0.00 | 0.00 | 87 | 1014.4 | |
| 20260510030537 | 46 | 0.0 | 1.0 | 0.00 | 0.00 | 0.00 | 87 | 1014.3 | |
| 20260510025517 | 46 | 0.0 | 4.0 | 0.00 | 0.00 | 0.00 | 87 | 1014.4 | |
| 20260510024517 | 46 | 0.0 | 3.0 | 0.00 | 0.00 | 0.00 | 86 | 1014.4 | |
| 20260510023537 | 47 | 0.0 | 3.0 | 0.00 | 0.00 | 0.00 | 86 | 1014.6 | |
| 20260510022557 | 47 | 0.0 | 2.0 | 0.00 | 0.00 | 0.00 | 85 | 1014.6 | |
| 20260510021537 | 48 | 0.0 | 3.0 | 0.00 | 0.00 | 0.00 | 85 | 1014.6 | |
| 20260510020517 | 48 | 0.0 | 4.0 | 0.00 | 0.00 | 0.00 | 85 | 1014.6 | |
| 20260510015517 | 48 | 0 | 1.0 | 4.0 | 0.00 | 0.00 | 0.00 | 84 | 1014.6 |
| 20260510014517 | 48 | 68 | 1.0 | 4.0 | 0.00 | 0.00 | 0.00 | 84 | 1014.6 |
| 20260510013517 | 49 | 0.0 | 1.0 | 0.00 | 0.00 | 0.00 | 84 | 1014.9 | |
| 20260510012517 | 49 | 248 | 1.0 | 5.0 | 0.00 | 0.00 | 0.00 | 84 | 1014.8 |
| 20260510011516 | 49 | 68 | 1.0 | 3.0 | 0.00 | 0.00 | 0.00 | 84 | 1014.7 |
| 20260510010516 | 49 | 68 | 1.0 | 4.0 | 0.00 | 0.00 | 0.00 | 83 | 1014.9 |
| 20260510005516 | 49 | 0.0 | 3.0 | 0.00 | 0.00 | 0.00 | 83 | 1015.1 | |
| 20260510004517 | 49 | 0.0 | 1.0 | 0.00 | 0.00 | 0.00 | 82 | 1015.3 | |
| 20260510003540 | 49 | 0.0 | 2.0 | 0.00 | 0.00 | 0.00 | 82 | 1015.3 | |
| 20260510002517 | 50 | 0.0 | 2.0 | 0.00 | 0.00 | 0.00 | 82 | 1015.6 | |
| 20260510001516 | 50 | 0.0 | 1.0 | 0.00 | 0.00 | 0.00 | 82 | 1015.5 | |
| 20260510000517 | 50 | 0.0 | 4.0 | 0.00 | 0.00 | 0.00 | 82 | 1015.7 | |
| 20260509235516 | 50 | 0.0 | 3.0 | 0.00 | 0.00 | 0.00 | 81 | 1015.9 | |
| 20260509234537 | 51 | 68 | 1.0 | 4.0 | 0.00 | 0.00 | 0.00 | 81 | 1015.9 |
| 20260509233516 | 51 | 0.0 | 4.0 | 0.00 | 0.00 | 0.00 | 80 | 1016.3 | |
| 20260509232516 | 51 | 0.0 | 2.0 | 0.00 | 0.00 | 0.00 | 79 | 1016.2 | |
| 20260509231516 | 51 | 0.0 | 2.0 | 0.00 | 0.00 | 0.00 | 79 | 1016.2 | |
| 20260509230516 | 52 | 0.0 | 1.0 | 0.00 | 0.00 | 0.00 | 78 | 1016.3 | |
| 20260509225516 | 52 | 158 | 1.0 | 3.0 | 0.00 | 0.00 | 0.00 | 78 | 1016.2 |
| 20260509224516 | 52 | 158 | 1.0 | 5.0 | 0.00 | 0.00 | 0.00 | 78 | 1016.2 |
| 20260509223536 | 52 | 248 | 1.0 | 4.0 | 0.00 | 0.00 | 0.00 | 78 | 1016.3 |
| 20260509222516 | 53 | 0.0 | 2.0 | 0.00 | 0.00 | 0.00 | 78 | 1016.1 | |
| 20260509221516 | 53 | 158 | 1.0 | 3.0 | 0.00 | 0.00 | 0.00 | 77 | 1016.3 |
| 20260509220516 | 53 | 158 | 1.0 | 2.0 | 0.00 | 0.00 | 0.00 | 77 | 1016.3 |
| 20260509215517 | 53 | 338 | 1.0 | 3.0 | 0.00 | 0.00 | 0.00 | 77 | 1016.2 |
| 20260509214517 | 53 | 0.0 | 4.0 | 0.00 | 0.00 | 0.00 | 77 | 1016.1 | |
| 20260509213537 | 54 | 0.0 | 2.0 | 0.00 | 0.00 | 0.00 | 77 | 1016.4 | |
| 20260509212537 | 54 | 158 | 1.0 | 4.0 | 0.00 | 0.00 | 0.00 | 77 | 1016.5 |